200 serials | errorteck 1.6 license key serial

Date Name Success Rate
2009-10-17 06:18:52 AquaScreen2.3D SERIAL 58%
2009-10-17 06:23:00 FishPond SERIAL 20%
2009-10-17 06:25:17 ITEKSOFT PDFSealer V6.05.1620 LICENSE 62%
2009-10-17 06:26:24 Key O Key V2 50%
2009-10-17 06:28:00 MindthinkTools V3.0 For Softimage XSI V3.5 License Key Only 51%
2009-10-17 06:28:08 MURENES SERIAL 33%
2009-10-17 06:30:02 PdfGrabber V1.1.0.30 Network License 51%
2009-10-17 06:30:07 PicaLoader Site+.License V1.42 48%
2009-10-17 06:30:07 PicaLoader V1.42 Personal License 57%
2009-10-17 06:30:07 PicaLoader V1.42 Site License 67%
2009-10-22 23:27:12 Active Key Logger 1.6 69%
2009-10-22 23:27:25 Astroids 1.6 78%
2009-10-22 23:27:26 AutoSignal 1.6 0%
2009-10-22 23:27:27 Avast 4.8 Professional Serial Key 67%
2009-10-22 23:44:49 Bejeweled 1.6 0%
2009-10-22 23:44:51 BRD Serial 62%
2009-10-22 23:44:51 BuryBury 1.6 0%
2009-10-22 23:45:54 CompuChess 1.6 0%
2009-10-22 23:45:56 Counter Strike Stream 1.6 1.6 0%
2009-10-22 23:45:56 Counter-Strike 1.6 Cd-key 100%
2009-10-22 23:45:56 Counterstrike 1.6 0%
2009-10-22 23:45:56 CS 1.6 0%
2009-10-22 23:46:27 DLLspy 1.6 54%
2009-10-22 23:47:41 EiTheL TEAM License 67%
2009-10-22 23:47:52 FleetNews 1.6 0%
2009-10-22 23:48:06 HandMine 1.6 0%
2009-10-22 23:48:06 HardKey License Manager 3.2 81%
2009-10-22 23:48:24 JMPuzzles 1.6 0%
2009-10-22 23:48:30 Konfabulator 1.6 0%
2009-10-22 23:48:37 License Name: Paul Jackson 65%
2009-10-22 23:48:37 License Plate Math 2.0 0%
2009-10-22 23:48:44 MacAstro 1.6 0%
2009-10-22 23:48:50 MindFinder 1.6 0%
2009-10-22 23:49:02 Nolimits_Coaster 1.6 0%
2009-10-22 23:49:02 Norton AntiVirus 2004 Pro Activation Key & Serial 63%
2009-10-22 23:49:02 Notesbrowser 1.6 0%
2009-10-22 23:49:13 OptionGrid 1.6 0%
2009-10-22 23:49:19 PassHat 1.6 0%
2009-10-22 23:49:21 PDF2HTML 1.6 0%
2009-10-22 23:49:21 PDF2Word 1.6 0%
2009-10-22 23:49:23 Pinnacle Studio 9.3 - All In One (serial+14 By Other Key) 83%
2009-10-22 23:49:41 Rapid Key 1.6 67%
2009-10-22 23:49:42 Regcure 1.6 20%
2009-10-22 23:49:42 Registry Mechanic 6.0.0.780(License Name+License Code) 66%
2009-10-22 23:49:52 Serial - Dragon Naturally Speaking 6 Cd Key (Working!) 73%
2009-10-22 23:49:55 SNetDownloader 1.6 0%
2009-10-22 23:49:58 SpeederXP 1.6 0%
2009-10-22 23:50:00 StopWatch 1.6 0%
2009-10-22 23:50:00 STUDVET 1.6 0%
2009-10-22 23:50:02 SuperSprites 1.6 0%
2009-10-22 23:50:09 TextPad 4.7.3BEGIN LICENSE 53%
2009-10-22 23:50:10 ThumbMaker 1.6 0%
2009-10-22 23:50:28 ViveloInc 1.6 0%
2009-10-22 23:50:37 WinPresenter 1.6 0%
2011-09-08 09:59:20 ActionLine 1.6 0%
2011-09-08 09:59:26 Active Key Logger 1.6 0%
2011-09-08 09:59:35 ActiveLocker 1.6 0%
2011-09-08 10:02:16 Agent 1.6 0%
2011-09-08 10:06:39 Anagrammer 1.6 0%
2011-09-08 10:09:11 Asteroids 1.6 0%
2011-09-08 10:09:13 Astroids 1.6 0%
2011-09-08 10:09:13 Astronomica 1.6 0%
2011-09-08 10:12:37 AutoSigna 1.6 0%
2011-09-08 10:12:37 AutoSignal 1.6 0%
2011-09-08 10:18:34 Backup32 1.6 0%
2011-09-08 10:21:15 BoxIP 1.6 0%
2011-09-08 10:22:06 BuryBury 1.6 0%
2011-09-08 10:24:52 CDCheck CORPORATE LICENSE 3.1.8.0 0%
2011-09-08 10:25:06 CDWinder 1.6 0%
2011-09-08 10:26:03 ChordBook 1.6 0%
2011-09-08 10:26:06 Chronograph 1.6 0%
2011-09-08 10:27:27 CMonitor 1.6 0%
2011-09-08 10:28:03 ColorSafe 1.6 0%
2011-09-08 10:28:13 Commotion 1.6 0%
2011-09-08 10:28:32 ConceptDraw 1.6 0%
2011-09-08 10:28:32 ConcertWave 1.6 0%
2011-09-08 10:31:45 counter strike stream 1.6 1.6 0%
2011-09-08 10:31:45 counterstrike 1.6 0%
2011-09-08 10:32:35 Crystallographica 1.6 67%
2011-09-08 10:41:53 DaanCalendar 1.6 0%
2011-09-08 10:43:40 Diphone 1.6 0%
2011-09-08 10:43:42 DirectISO 1.6 0%
2011-09-08 10:44:11 DizIt 1.6 0%
2011-09-08 10:44:13 DLLspy 1.6 0%
2011-09-08 10:44:24 DocMan 1.6 0%
2011-09-08 10:48:48 EditDV 1.6 0%
2011-09-08 10:49:35 Enterprise system License 0%
2011-09-08 10:50:07 Euraconf 1.6 0%
2011-09-08 10:50:08 Eurobuchfuehrung 1.6 0%
2011-09-08 10:50:09 EVEdit 1.6 0%
2011-09-08 10:50:50 EyeBatch 1.6 0%
2011-09-08 10:53:43 Faktura 1.6 0%
2011-09-08 10:54:12 FeatherGIF 1.6 0%
2011-09-08 10:55:37 FleetNews 1.6 0%
2011-09-08 10:56:02 FolderView 1.6 0%
2011-09-08 10:56:13 FontSubst 1.6 0%
2011-09-08 10:56:52 Fracas 1.6 0%
2011-09-08 10:57:26 FreshDiagnose Personal License 6.6 0%
2011-09-08 10:57:26 FreshDiagnose Personal License 6.60 0%
2011-09-08 10:57:26 FreshUI Personal License 7.06 0%
2011-09-08 10:57:26 FreshView Personal License 2.0 0%
2011-09-08 11:03:13 gordon 1.6 57%
2011-09-08 11:03:13 GoScreen 1.6 0%
2011-09-08 11:03:16 GPSDash 1.6 0%
2011-09-08 11:03:16 GPSdb 1.6 0%
2011-09-08 11:03:40 Grossmeister 1.6 0%
2011-09-08 11:05:39 habbohote 1.6 0%
2011-09-08 11:05:47 HandMine 1.6 0%
2011-09-08 11:05:56 HardCopy 1.6 0%
2011-09-08 11:05:56 HardKey License Manager 3.2 40%
2011-09-08 11:05:56 HardKey License Manager v3.2 0%
2011-09-08 11:06:23 Helium 1.6 0%
2011-09-08 11:09:29 Hotelstar 1.6 0%
2011-09-08 11:13:17 I Share v2.5 Serial #99020001425 Verification Key 60%
2011-09-08 11:13:43 IconPainter 1.6 0%
2011-09-08 11:14:26 Image2PDF 1.6 0%
2011-09-08 11:14:26 ImageBrowser 1.6 0%
2011-09-08 11:17:08 IPSearch 1.6 0%
2011-09-08 11:20:14 JMPuzzles 1.6 0%
2011-09-08 11:20:18 JoQmory 1.6 0%
2011-09-08 11:21:19 Key Key v1.00c 59%
2011-09-08 11:21:47 Kineticon 1.6 0%
2011-09-08 11:21:58 Konfabulator 1.6 0%
2011-09-08 11:24:58 LANScan 1.6 0%
2011-09-08 11:25:03 Lattice 1.6 0%
2011-09-08 11:25:54 License Administration Kit 2.0.4 82%
2011-09-08 11:25:54 License Plate Math 2.0 0%
2011-09-08 11:25:54 License Plate Math v2.0 0%
2011-09-08 11:27:15 Loopy 1.6 0%
2011-09-08 11:27:31 LudoBet 1.6 0%
2011-09-08 11:27:46 MacAstro 1.6 0%
2011-09-08 11:28:09 MacSki 1.6 0%
2011-09-08 11:28:51 Mail-It 1.6 0%
2011-09-08 11:29:02 MailSweep 1.6 0%
2011-09-08 11:29:10 MakeMS 1.6 0%
2011-09-08 11:29:21 Marathon Infinity Full License 0%
2011-09-08 11:29:58 Mazaika 1.6 0%
2011-09-08 11:31:20 Microsoft Beta-Site license 0%
2011-09-08 11:31:43 Microsoft Office XP Pro English Volume License Key XP Pro 61%
2011-09-08 11:32:52 MinuteMan 1.6 0%
2011-09-08 11:33:39 MorningPaper 1.6 0%
2011-09-08 11:41:53 Netoscope 1.6 0%
2011-09-08 12:25:20 Multimedia Xplorer v1.30b License to 0%
2011-09-08 12:26:16 OBSERVER v4.0x License 0%
2011-09-08 12:27:12 OptionGrid 1.6 0%
2011-09-08 12:28:05 PanoramaStudio 1.6 52%
2011-09-08 12:28:27 PassHat 1.6 0%
2011-09-08 12:29:31 PDF2HTML 1.6 0%
2011-09-08 12:30:45 PhotoChecker 1.6 0%
2011-09-08 12:33:35 PicStation32 1.6 0%
2011-09-08 12:37:02 QuakeFinder 1.6 0%
2011-09-08 12:37:36 QuickMP3 1.6 0%
2011-09-08 12:37:49 QWallet 1.6 0%
2011-09-08 12:40:28 Rapid Key 1.6 100%
2011-09-08 12:41:12 ReGet 1.6 0%
2011-09-08 12:43:56 Roesselsprung 1.6 0%
2011-09-08 12:45:49 Screen It! 1.6 0%
2011-09-08 12:47:26 ShowMe 1.6 0%
2011-09-08 12:48:57 SmartBackup 1.6 0%
2011-09-08 12:49:05 SmartSound 1.6 0%
2011-09-08 12:49:13 SnagIt (Academic License) 10 68%
2011-09-08 12:49:18 SnapDialer 1.6 0%
2011-09-08 12:50:11 SONIC 1.6 0%
2011-09-08 12:50:42 SpamButcher 1.6 0%
2011-09-08 12:51:40 Talisman 1.6 0%
2011-09-08 12:52:33 TestTrack 1.6 0%
2011-09-08 12:53:01 THE BAT! 1.6 0%
2011-09-08 12:54:00 Tickle 1.6 0%
2011-09-08 12:55:20 TranxBDM 1.6 0%
2011-09-08 12:58:38 Steam 1.6 0%
2011-09-08 12:58:56 StopWatch 1.6 60%
2011-09-08 12:58:59 StormWindows v4.5 Corporate License 0%
2011-09-08 12:58:59 StormWindows v4.5 Demo License 0%
2011-09-08 12:59:17 Style 1.6 0%
2011-09-08 12:59:57 SuperCleaner 1.6 0%
2011-09-08 13:00:02 SuperList 1.6 0%
2011-09-08 13:00:08 SuperSprites 1.6 0%
2011-09-08 13:08:23 UnErase Admin License 4.0.1336 0%
2011-09-08 13:08:23 UnErase Personal License 4.0.1336 56%
2011-09-08 13:08:23 UnErase Tech License 4.0.1336 0%
2011-09-08 13:08:41 Universe 1.6 0%
2011-09-08 13:15:50 Wcode 1.6 0%
2011-09-08 13:16:46 WebScanner 1.6 0%
2011-09-08 13:17:55 WinCron 1.6 0%
2011-09-08 13:17:55 WinD 1.6 0%
2011-09-08 13:18:26 Windows Server 2003 RTM Corporate Volume License Key 61%
2011-09-08 13:19:06 WinMaster 1.6 0%
2011-09-08 13:19:22 WinPresenter 1.6 0%
2011-09-08 13:20:49 WS License Manager 1.00 61%
2011-09-08 13:20:49 WS License Manager v1.00 61%
2012-12-12 00:13:07 Advanced system care with antivirus 2013 serial key 50%
2012-12-12 02:24:07 Ashampoo Burning Studio 2010 SERIAL KEY 0%
2012-12-12 02:38:05 ATA serial 0%
2012-12-12 03:13:18 Avast Free antivirus 30 yrs license key 39%
2012-12-12 03:15:56 Avast Serial Key 70%
2012-12-12 03:19:46 AVG 2012 Unilimited License 97%
2012-12-12 03:19:59 Avg 2013 serial key 1000000% working 63%
2012-12-12 04:18:18 Bitdefender total security 2010 license key 46%
2012-12-12 10:56:52 Eset 5 license 2016 0%
2012-12-12 21:51:45 Nero Burning ROM 11 Serial Key 53%